Wind_Speed
18 18 16 15 16 15 14 13 14 12 12 15 17 18 16 17 18 17 17 17 17 18 17 16 16 16 17 16 17 16 16 16 16 17 17 17 17 15 15 15 16 16 16 17
19 18 15 16 16 16 15 15 15 14 13 16 17 17 16 17 17 16 17 17 17 17 17 16 17 17 16 17 17 16 16 16 17 17 17 17 17 16 16 16 16 17 17 18
18 16 16 17 17 16 16 16 15 14 13 15 18 18 16 17 16 17 18 18 17 18 19 18 17 16 16 17 16 16 17 17 17 17 17 17 17 16 17 17 17 18 18 18
18 17 18 17 16 15 16 14 15 15 15 15 15 18 16 16 16 16 18 18 18 18 19 18 17 16 16 17 18 18 18 18 18 18 18 18 17 17 17 18 18 19 19 18
18 18 18 17 15 15 15 15 16 16 16 16 17 20 17 16 17 17 18 19 19 18 18 18 18 17 16 17 19 19 18 18 19 19 19 19 18 18 18 17 17 18 18 18
18 18 18 17 16 16 16 15 16 16 17 18 16 19 18 16 18 18 18 18 19 18 17 17 18 18 17 18 18 19 19 19 20 20 20 20 19 19 18 18 18 18 19 19
19 19 17 17 17 16 16 17 18 18 18 18 16 19 18 17 17 18 18 19 19 18 18 17 19 19 19 19 19 19 20 20 21 21 21 21 20 20 19 19 19 19 19 20
19 19 17 18 18 16 16 17 19 19 20 20 19 20 18 18 18 19 20 19 19 19 18 18 19 19 20 20 19 20 21 21 22 22 21 21 21 21 20 21 21 20 20 21
18 18 17 18 17 18 18 18 18 20 21 22 21 21 19 19 20 19 21 21 19 19 19 18 18 18 19 20 20 22 21 22 22 22 22 22 21 21 21 22 21 21 22 22
19 18 18 17 18 19 20 20 21 22 23 23 23 21 20 20 20 19 19 19 18 19 19 19 19 20 19 20 20 22 22 23 22 23 23 23 22 22 22 22 21 22 22 23
21 21 19 19 20 21 21 21 23 23 24 25 26 23 21 21 21 21 20 20 20 20 19 19 20 22 21 21 22 23 23 22 22 22 23 22 22 23 23 22 22 22 22 23
22 22 21 21 21 21 23 24 24 25 26 27 28 25 21 21 22 22 22 21 21 21 20 20 21 23 23 23 23 24 23 21 21 22 22 22 23 23 23 22 23 23 22 22
22 23 23 23 22 23 24 24 25 26 27 27 27 25 22 22 23 23 23 22 21 21 20 21 22 24 23 23 24 24 23 21 22 22 22 22 23 23 23 23 23 23 23 23
21 23 23 24 23 24 24 25 26 26 28 28 27 26 25 25 24 23 23 22 21 20 21 22 22 23 24 25 24 24 24 22 23 23 23 23 23 23 22 22 23 23 24 23
24 25 25 25 24 25 25 25 26 27 28 29 27 26 26 25 23 23 23 21 20 21 23 22 23 24 24 25 24 23 23 23 23 23 22 22 22 22 22 22 22 22 23 23
26 27 26 26 26 27 27 27 27 27 27 27 26 25 25 24 23 23 23 22 22 23 23 23 23 22 23 23 23 22 22 22 22 23 23 22 21 22 22 22 23 23 24 24
28 28 27 26 26 26 26 25 26 25 24 25 26 25 24 24 23 23 22 23 23 24 24 23 22 23 23 22 21 21 21 22 22 22 22 22 23 23 23 23 24 25 25 25
28 29 28 27 26 28 25 24 25 25 25 26 26 25 24 23 23 23 23 23 23 23 23 22 23 24 23 22 22 23 23 22 23 22 23 23 24 24 24 25 25 25 26 25
26 26 27 27 27 27 25 25 25 24 25 25 25 24 24 22 22 22 22 23 23 23 23 23 23 23 23 23 23 23 23 22 22 22 23 23 24 25 24 24 25 25 26 26
26 27 27 27 28 27 25 25 25 26 27 25 25 25 24 24 24 23 23 23 23 24 24 24 23 23 23 23 23 23 22 22 22 22 23 24 24 24 24 25 26 26 27 27
25 26 27 28 28 28 26 26 25 26 25 25 24 24 24 23 23 23 23 24 24 24 24 24 24 23 24 24 24 24 24 24 24 24 24 24 24 24 25 26 26 27 27 27
25 26 27 28 29 28 25 25 25 25 25 25 23 23 23 23 23 24 25 25 25 25 25 25 24 24 24 24 24 24 25 24 25 25 25 24 24 24 25 26 27 27 27 27
26 26 27 27 27 26 25 24 25 26 26 25 24 24 24 23 23 24 24 25 26 26 26 26 25 25 25 25 25 25 25 25 25 25 25 25 24 25 25 26 27 27 26 26
27 28 27 28 27 26 26 25 26 26 26 26 25 25 26 25 25 25 26 27 28 28 28 27 26 26 26 26 25 26 25 25 25 25 26 25 25 26 26 26 27 26 26 25
28 28 28 28 27 27 27 27 27 28 27 27 27 26 26 26 26 27 28 29 29 29 28 27 26 27 27 27 26 26 26 26 26 26 26 26 26 26 26 26 26 26 26 26
27 28 28 28 27 26 26 27 28 28 28 28 27 27 26 27 28 28 29 29 29 28 27 27 27 27 26 27 26 26 26 26 25 25 26 26 26 26 26 26 26 26 26 26
Wind_Direction
237 239 242 245 250 253 253 258 264 270 273 272 274 272 274 280 283 286 291 298 303 304 301 303 305 302 302 301 302 303 305 305 303 304 304 301 297 292 289 287 285 285 283 282
236 237 237 238 245 250 254 262 264 268 272 277 279 276 279 280 282 285 288 295 297 300 299 297 300 300 300 302 300 302 305 304 303 303 304 303 300 294 288 286 284 283 283 282
239 235 235 239 243 246 254 264 266 272 275 280 283 279 280 281 288 287 287 291 291 293 296 295 292 295 298 300 300 301 300 301 302 301 303 302 299 296 290 288 286 284 283 282
236 231 235 240 243 249 255 262 267 271 272 275 280 281 280 281 285 288 287 288 288 292 295 295 293 295 297 298 298 296 297 299 301 300 300 301 300 297 294 292 287 285 283 282
236 232 235 240 243 251 256 258 263 267 270 270 273 279 282 282 283 288 289 289 288 294 294 292 294 294 295 295 294 295 296 299 300 300 300 300 299 298 297 295 292 288 286 283
234 235 238 238 241 247 252 256 260 263 268 271 274 280 281 285 286 290 293 294 292 292 291 291 294 294 291 291 294 292 295 298 300 298 298 299 298 298 297 296 295 291 288 287
234 234 234 236 242 243 247 255 260 263 265 272 280 283 286 291 293 291 296 298 294 288 288 288 290 292 294 294 293 292 292 295 297 296 295 296 295 295 294 294 293 292 292 291
240 234 233 238 244 248 251 256 261 268 273 276 279 282 287 288 290 291 292 293 291 286 286 285 286 290 293 296 294 293 293 293 295 294 295 294 293 292 291 290 291 291 290 289
245 242 239 240 246 252 254 256 265 274 280 277 278 282 284 287 289 292 292 291 291 286 284 282 285 288 291 295 293 292 293 292 294 295 294 295 292 291 291 290 290 290 289 288
248 247 243 244 245 250 256 262 264 267 273 275 277 280 285 288 290 290 294 295 294 295 289 284 286 287 289 290 291 292 292 292 292 292 292 293 293 293 292 289 289 292 292 289
245 249 245 246 247 250 252 255 259 264 269 272 277 280 287 290 292 294 295 296 297 296 292 288 286 285 287 289 290 291 293 291 292 294 292 293 294 295 292 289 289 290 290 288
245 248 248 250 251 254 255 257 258 261 266 269 273 279 283 288 291 294 296 295 293 294 293 286 283 284 288 290 291 294 294 292 292 294 293 294 295 295 293 290 290 291 291 288
247 249 252 253 252 253 255 257 258 260 266 269 272 276 281 287 289 292 294 294 293 292 291 288 284 286 290 291 294 298 297 294 295 295 295 295 296 295 293 291 290 291 291 288
248 249 253 256 255 256 255 256 258 261 265 269 271 276 280 285 287 289 291 292 290 291 292 291 290 293 295 296 297 295 295 293 294 295 295 295 295 294 293 292 289 290 290 289
250 250 253 255 257 259 259 258 258 260 264 268 271 273 278 283 284 283 287 290 288 289 292 291 292 294 295 297 296 294 293 292 294 295 296 295 294 295 295 292 291 292 291 289
252 255 257 256 256 259 260 259 260 263 266 268 270 273 275 277 277 280 284 287 287 289 291 292 293 293 296 295 293 293 292 292 292 293 294 294 295 295 294 293 293 293 293 292
255 257 258 258 258 261 262 260 260 261 266 267 270 273 274 274 277 280 283 287 286 288 290 292 295 296 295 294 292 290 291 292 293 294 294 294 295 295 294 293 292 293 294 292
256 257 259 260 260 261 262 261 261 263 265 266 269 271 272 274 278 277 278 284 289 290 293 294 295 296 290 289 289 291 292 294 295 295 294 294 294 295 294 294 293 294 293 293
256 256 258 260 261 261 262 262 260 262 262 265 268 272 272 273 276 277 278 283 287 291 293 294 293 293 290 289 290 291 291 292 294 294 294 295 297 296 297 297 297 297 295 294
254 255 257 259 260 262 263 263 263 264 264 266 269 272 272 275 275 277 280 281 284 289 291 292 292 291 288 288 289 291 293 294 296 297 299 300 300 299 300 299 298 298 298 296
253 254 257 259 261 262 265 266 266 264 268 267 269 274 274 275 276 278 281 282 283 285 286 287 289 289 287 287 288 290 292 294 295 295 297 298 299 299 299 299 299 299 298 297
259 258 259 262 261 261 265 265 264 266 269 267 270 273 273 275 275 277 279 283 283 282 284 287 288 287 285 286 288 290 290 292 292 293 294 296 296 297 298 299 300 301 300 298
261 262 264 264 264 265 264 265 264 265 266 266 269 274 273 272 274 275 277 279 282 284 285 285 287 286 284 285 287 288 290 291 290 292 293 294 295 297 298 299 301 302 302 301
260 262 262 262 262 263 264 265 265 267 267 268 271 272 272 272 275 277 279 280 280 281 283 284 285 286 285 285 287 289 289 289 290 291 292 293 295 297 297 298 299 301 302 302
259 262 263 261 262 263 262 263 263 266 267 271 272 274 274 275 277 278 279 279 280 282 282 281 284 284 284 284 285 286 288 289 290 291 291 293 296 297 298 298 300 300 301 301
258 261 262 261 261 262 265 264 264 265 266 270 273 274 273 275 276 277 278 280 281 281 281 283 284 283 283 284 284 284 285 288 290 291 293 294 296 297 297 298 300 300 300 299
Height
5868 5870 5872 5874 5875 5876 5876 5876 5876 5877 5877 5875 5874 5873 5873 5872 5871 5870 5869 5868 5867 5866 5864 5863 5861 5859 5857 5856 5854 5853 5851 5850 5848 5847 5845 5844 5842 5841 5840 5839 5838 5837 5836 5836
5864 5866 5869 5870 5870 5871 5871 5871 5872 5873 5873 5870 5868 5868 5868 5867 5867 5866 5864 5863 5863 5861 5860 5859 5858 5856 5854 5852 5851 5849 5848 5846 5845 5843 5842 5840 5838 5837 5836 5835 5834 5833 5832 5831
5860 5864 5864 5864 5865 5866 5867 5868 5868 5868 5867 5866 5864 5863 5864 5863 5863 5862 5861 5859 5858 5857 5856 5855 5853 5852 5850 5849 5847 5846 5844 5843 5841 5840 5838 5836 5834 5833 5832 5830 5829 5828 5827 5826
5855 5858 5859 5859 5861 5862 5863 5864 5864 5863 5862 5862 5861 5858 5859 5858 5858 5857 5855 5854 5853 5853 5851 5849 5848 5847 5846 5845 5843 5842 5840 5839 5837 5836 5834 5832 5830 5829 5827 5825 5824 5823 5821 5820
5850 5853 5853 5855 5857 5858 5859 5860 5859 5859 5858 5857 5857 5854 5855 5854 5853 5852 5850 5849 5848 5846 5846 5844 5843 5843 5842 5840 5839 5837 5835 5834 5832 5831 5829 5827 5826 5824 5822 5821 5819 5818 5816 5815
5846 5848 5849 5851 5853 5853 5854 5855 5855 5854 5853 5852 5853 5851 5849 5849 5848 5847 5845 5843 5842 5841 5840 5839 5838 5837 5837 5835 5834 5832 5831 5829 5828 5826 5824 5822 5821 5819 5817 5816 5814 5813 5811 5809
5841 5842 5844 5846 5847 5848 5849 5850 5850 5849 5848 5847 5848 5845 5845 5845 5844 5842 5840 5838 5837 5836 5834 5833 5833 5832 5831 5830 5829 5828 5826 5825 5823 5821 5819 5817 5815 5814 5812 5811 5809 5808 5806 5804
5835 5837 5839 5841 5842 5843 5844 5845 5845 5845 5844 5843 5843 5841 5842 5840 5839 5837 5835 5833 5832 5830 5829 5828 5827 5827 5826 5825 5824 5822 5821 5820 5818 5816 5814 5812 5810 5808 5807 5806 5804 5802 5800 5798
5829 5832 5835 5837 5838 5839 5840 5840 5841 5841 5839 5837 5837 5837 5837 5836 5834 5832 5830 5828 5826 5825 5823 5823 5822 5822 5821 5820 5819 5818 5816 5814 5813 5810 5808 5806 5805 5803 5801 5799 5797 5796 5794 5792
5825 5827 5830 5832 5833 5834 5836 5836 5836 5835 5833 5832 5831 5832 5833 5831 5829 5827 5824 5822 5820 5819 5819 5818 5818 5817 5816 5816 5815 5813 5811 5809 5807 5805 5803 5801 5799 5797 5794 5793 5791 5789 5787 5786
5821 5822 5825 5826 5827 5828 5830 5830 5829 5829 5828 5827 5825 5828 5827 5825 5823 5821 5819 5817 5815 5814 5813 5812 5812 5811 5809 5809 5808 5807 5805 5802 5800 5799 5797 5795 5793 5790 5788 5786 5784 5783 5781 5779
5816 5817 5819 5821 5822 5823 5823 5824 5824 5824 5823 5821 5820 5823 5821 5820 5817 5815 5813 5812 5810 5809 5808 5807 5806 5806 5804 5803 5802 5800 5798 5796 5794 5792 5791 5788 5786 5784 5781 5779 5778 5776 5774 5772
5811 5812 5813 5815 5818 5818 5817 5817 5817 5817 5816 5815 5814 5817 5815 5814 5812 5810 5808 5807 5805 5804 5803 5802 5801 5799 5798 5797 5796 5794 5791 5790 5788 5786 5784 5782 5780 5778 5775 5773 5772 5770 5767 5766
5805 5806 5808 5809 5809 5811 5811 5812 5811 5810 5809 5809 5809 5810 5810 5808 5806 5805 5804 5802 5800 5799 5798 5796 5795 5793 5792 5791 5790 5788 5786 5784 5782 5780 5778 5776 5774 5772 5770 5767 5765 5763 5761 5759
5798 5800 5801 5802 5803 5804 5804 5805 5805 5804 5803 5803 5803 5803 5803 5802 5801 5800 5799 5797 5796 5794 5792 5790 5789 5788 5787 5785 5783 5782 5780 5778 5777 5775 5772 5770 5768 5765 5763 5761 5759 5757 5755 5753
5791 5792 5793 5795 5796 5796 5797 5798 5797 5797 5797 5797 5796 5797 5797 5796 5795 5794 5793 5791 5790 5789 5787 5785 5784 5782 5780 5778 5777 5775 5774 5773 5771 5769 5767 5764 5762 5760 5757 5755 5753 5750 5748 5746
5784 5785 5786 5787 5789 5788 5789 5791 5790 5790 5790 5790 5790 5791 5790 5789 5789 5788 5787 5786 5784 5783 5782 5779 5778 5776 5774 5773 5771 5770 5768 5766 5764 5763 5761 5758 5756 5754 5751 5749 5746 5744 5742 5739
5777 5778 5779 5780 5782 5781 5785 5783 5783 5783 5783 5783 5783 5783 5783 5784 5783 5782 5781 5780 5779 5777 5776 5774 5773 5771 5769 5767 5766 5764 5763 5761 5759 5756 5754 5752 5750 5747 5745 5742 5739 5737 5734 5732
5770 5771 5772 5773 5773 5774 5776 5776 5776 5776 5776 5776 5776 5776 5776 5776 5776 5775 5774 5773 5772 5771 5770 5768 5767 5765 5763 5762 5760 5758 5756 5755 5753 5751 5748 5746 5743 5741 5738 5735 5732 5730 5727 5725
5763 5764 5765 5766 5766 5767 5770 5769 5768 5770 5769 5770 5769 5770 5770 5770 5770 5770 5768 5767 5766 5765 5764 5762 5761 5759 5757 5756 5754 5752 5751 5749 5747 5745 5742 5740 5737 5734 5731 5728 5726 5723 5720 5717
5755 5756 5758 5758 5758 5759 5761 5761 5761 5763 5763 5763 5763 5763 5763 5762 5763 5763 5762 5761 5760 5758 5757 5756 5754 5753 5751 5749 5748 5746 5745 5743 5741 5739 5736 5734 5731 5728 5725 5722 5719 5715 5712 5709
5748 5749 5750 5751 5751 5754 5754 5753 5754 5755 5755 5755 5756 5756 5756 5756 5755 5755 5755 5753 5752 5751 5750 5748 5747 5746 5745 5743 5741 5740 5738 5736 5734 5731 5729 5727 5724 5721 5718 5715 5712 5708 5705 5701
5741 5742 5742 5744 5746 5746 5745 5746 5747 5747 5748 5748 5749 5749 5749 5749 5748 5748 5747 5746 5745 5743 5742 5740 5739 5739 5738 5736 5734 5733 5731 5729 5727 5724 5722 5720 5717 5715 5712 5708 5705 5701 5697 5694
5734 5735 5735 5736 5737 5738 5738 5738 5739 5740 5740 5741 5742 5742 5742 5742 5741 5740 5739 5738 5737 5736 5734 5732 5731 5731 5730 5729 5727 5726 5724 5721 5719 5717 5715 5713 5710 5708 5705 5701 5698 5694 5691 5687
5727 5727 5727 5728 5729 5730 5731 5731 5731 5732 5732 5733 5733 5733 5733 5733 5732 5732 5731 5730 5729 5727 5726 5725 5723 5723 5722 5721 5719 5718 5716 5714 5712 5710 5708 5705 5703 5700 5697 5694 5690 5687 5684 5680
5719 5720 5720 5721 5721 5722 5722 5722 5723 5724 5724 5725 5725 5725 5725 5724 5724 5723 5722 5721 5720 5719 5717 5716 5715 5715 5714 5712 5711 5710 5708 5707 5705 5702 5700 5698 5695 5693 5690 5687 5683 5679 5676 5673